Tavèrnoles





Hora UTC 20:30
Temperatura 4.6 ºC
Humitat 89.0 %
Pressió 1003.7 hPa
Pluja 0.2 mm
Velocitat vent 0.0 km/h
Direcció vent S
Radiació solar 0.0 W/m²

Dades diàries 2019-11-15



Hora UTC (hivern +1h; estiu +2h)
Temperatura (ºC) Humitat (%) Pressió (hPa) Velocitat vent (km/h) Precipitació (mm) Radiació solar (W/m²)
Hora UTC Aire Humitat Pressió Vel. Dir. Vel. Max Dir. Intent. màx 5 min. Rad. Sol.
00:05 1.3 95.0 999.1 3.2 SSW 3.2 0.0 0.0
00:10 1.3 95.0 999.1 1.6 SSE 6.4 0.0 0.0
00:15 1.2 95.0 999.1 0.0 SSW 6.4 0.0 0.0
00:20 1.1 95.0 999.2 4.8 SSW 4.8 0.0 0.0
00:25 1.0 95.0 999.3 0.0 SSW 6.4 0.0 0.0
00:30 1.0 95.0 999.3 0.0 SSW 6.4 0.0 0.0
00:35 0.8 95.0 999.3 0.0 SSW 3.2 0.0 0.0
00:40 0.7 95.0 999.3 0.0 SSW 1.6 0.0 0.0
00:45 0.6 95.0 999.3 0.0 SSW 1.6 0.0 0.0
00:50 0.6 95.0 999.4 0.0 S 3.2 0.0 0.0
00:55 0.4 95.0 999.3 0.0 S 3.2 0.0 0.0
01:00 0.4 95.0 999.3 0.0 S 0.0 0.0 0.0
01:05 0.3 95.0 999.4 0.0 S 0.0 0.0 0.0
01:10 0.2 95.0 999.4 0.0 S 0.0 0.0 0.0
01:15 0.2 95.0 999.4 0.0 S 0.0 0.0 0.0
01:20 0.1 95.0 999.5 0.0 S 1.6 0.0 0.0
01:25 0.0 95.0 999.6 0.0 S 1.6 0.0 0.0
01:30 -0.1 95.0 999.6 0.0 S 1.6 0.0 0.0
01:35 -0.1 95.0 999.7 0.0 S 1.6 0.0 0.0
01:40 -0.2 95.0 999.7 0.0 S 1.6 0.0 0.0
01:45 -0.2 95.0 999.8 0.0 S 1.6 0.0 0.0
01:50 -0.2 95.0 999.9 0.0 S 0.0 0.0 0.0
01:55 -0.2 95.0 999.9 0.0 S 0.0 0.0 0.0
02:00 -0.3 95.0 999.7 0.0 S 0.0 0.0 0.0
02:05 -0.3 95.0 999.8 0.0 S 0.0 0.0 0.0
02:10 -0.3 95.0 999.8 0.0 S 0.0 0.0 0.0
02:15 -0.4 95.0 999.7 0.0 S 0.0 0.0 0.0
02:20 -0.4 95.0 999.7 0.0 S 0.0 0.0 0.0
02:25 -0.4 95.0 999.7 0.0 S 0.0 0.0 0.0
02:30 -0.4 95.0 999.8 0.0 S 1.6 0.0 0.0
02:35 -0.4 95.0 999.8 0.0 S 1.6 0.0 0.0
02:40 -0.4 95.0 999.7 0.0 S 0.0 0.0 0.0
02:45 -0.5 95.0 999.9 0.0 S 0.0 0.0 0.0
02:50 -0.6 95.0 999.9 0.0 S 0.0 0.0 0.0
02:55 -0.6 95.0 1000.0 0.0 S 0.0 0.0 0.0
03:00 -0.6 96.0 999.9 0.0 S 0.0 0.0 0.0
03:05 -0.6 96.0 999.9 0.0 S 0.0 0.0 0.0
03:10 -0.5 96.0 999.9 0.0 S 0.0 0.0 0.0
03:15 -0.5 96.0 999.9 0.0 S 0.0 0.0 0.0
03:20 -0.5 96.0 999.9 0.0 S 0.0 0.0 0.0
03:25 -0.5 96.0 999.9 0.0 S 0.0 0.0 0.0
03:30 -0.4 96.0 999.9 0.0 S 3.2 0.0 0.0
03:35 -0.4 96.0 999.8 0.0 S 3.2 0.0 0.0
03:40 -0.3 96.0 999.8 0.0 S 1.6 0.0 0.0
03:45 -0.3 96.0 999.8 0.0 S 1.6 0.0 0.0
03:50 -0.3 96.0 999.8 0.0 S 0.0 0.0 0.0
03:55 -0.4 96.0 999.8 0.0 S 0.0 0.0 0.0
04:00 -0.5 96.0 999.9 0.0 S 0.0 0.0 0.0
04:05 -0.5 96.0 999.9 0.0 S 0.0 0.0 0.0
04:10 -0.4 96.0 1000.0 0.0 S 0.0 0.0 0.0
04:15 -0.4 96.0 1000.0 0.0 S 0.0 0.0 0.0
04:20 -0.5 96.0 1000.0 0.0 S 0.0 0.0 0.0
04:25 -0.5 96.0 1000.1 0.0 S 0.0 0.0 0.0
04:30 -0.5 96.0 1000.1 0.0 S 0.0 0.0 0.0
04:35 -0.5 96.0 1000.1 0.0 S 0.0 0.0 0.0
04:40 -0.6 96.0 1000.0 0.0 S 0.0 0.0 0.0
04:45 -0.7 96.0 999.9 0.0 S 0.0 0.0 0.0
04:50 -0.7 96.0 1000.0 0.0 S 0.0 0.0 0.0
04:55 -0.8 96.0 1000.1 0.0 S 0.0 0.0 0.0
05:00 -0.8 96.0 1000.1 0.0 S 0.0 0.0 0.0
05:05 -0.8 96.0 1000.1 0.0 S 0.0 0.0 0.0
05:10 -0.8 96.0 1000.0 0.0 S 0.0 0.0 0.0
05:15 -0.8 96.0 1000.1 0.0 S 0.0 0.0 0.0
05:20 -0.8 96.0 1000.2 0.0 S 0.0 0.0 0.0
05:25 -0.7 96.0 1000.2 0.0 S 0.0 0.0 0.0
05:30 -0.5 96.0 1000.3 0.0 S 0.0 0.0 0.0
05:35 -0.3 96.0 1000.2 0.0 S 0.0 0.0 0.0
05:40 -0.3 96.0 1000.3 0.0 S 0.0 0.0 0.0
05:45 -0.3 96.0 1000.3 0.0 S 0.0 0.0 0.0
05:50 -0.2 96.0 1000.3 0.0 S 0.0 0.0 0.0
05:55 -0.1 96.0 1000.3 0.0 S 0.0 0.0 0.0
06:00 -0.1 96.0 1000.4 0.0 S 0.0 0.0 0.0
06:05 0.0 96.0 1000.3 0.0 S 0.0 0.0 0.0
06:10 0.0 96.0 1000.4 0.0 S 0.0 0.0 0.0
06:15 0.1 96.0 1000.5 0.0 S 0.0 0.0 0.0
06:20 0.2 96.0 1000.6 0.0 S 0.0 0.0 0.0
06:25 0.2 96.0 1000.6 0.0 S 0.0 0.0 0.0
06:30 0.3 96.0 1000.5 0.0 S 0.0 0.0 0.0
06:35 0.3 96.0 1000.5 0.0 S 0.0 0.0 0.0
06:40 0.3 96.0 1000.5 0.0 S 0.0 0.0 0.0
06:45 0.3 96.0 1000.6 0.0 S 0.0 0.0 0.0
06:50 0.3 96.0 1000.6 0.0 S 0.0 0.0 0.0
06:55 0.3 96.0 1000.7 0.0 S 0.0 0.0 0.0
07:00 0.3 96.0 1000.6 0.0 S 0.0 0.0 5.0
07:05 0.3 96.0 1000.7 0.0 S 0.0 0.0 5.0
07:10 0.4 96.0 1000.7 0.0 S 0.0 0.0 7.0
07:15 0.4 96.0 1000.9 0.0 S 0.0 0.0 7.0
07:20 0.5 96.0 1001.1 0.0 S 0.0 0.0 9.0
07:25 0.6 96.0 1001.1 0.0 S 0.0 0.0 11.0
07:30 0.6 96.0 1001.3 0.0 S 0.0 0.0 12.0
07:35 0.7 96.0 1001.4 0.0 S 0.0 0.0 14.0
07:40 0.7 96.0 1001.5 0.0 S 0.0 0.0 14.0
07:45 0.7 96.0 1001.6 0.0 S 0.0 0.0 14.0
07:50 0.8 96.0 1001.6 4.8 S 4.8 0.0 19.0
07:55 0.8 96.0 1001.6 0.0 S 4.8 0.0 25.0
08:00 0.8 96.0 1001.5 0.0 S 4.8 0.2 33.0
08:05 0.9 97.0 1001.6 1.6 S 4.8 0.0 32.0
08:10 0.9 97.0 1001.6 0.0 S 4.8 0.0 35.0
08:15 0.9 96.0 1001.4 0.0 S 6.4 0.0 42.0
08:20 0.8 96.0 1001.4 0.0 S 6.4 0.0 53.0
08:25 0.8 96.0 1001.5 0.0 S 1.6 0.0 56.0
08:30 0.8 96.0 1001.5 0.0 S 0.0 0.0 49.0
08:35 0.9 96.0 1001.6 0.0 S 0.0 0.0 56.0
08:40 1.0 97.0 1001.7 0.0 S 0.0 0.0 46.0
08:45 1.0 97.0 1001.7 0.0 E 0.0 0.0 56.0
08:50 1.0 96.0 1001.7 0.0 E 0.0 0.0 44.0
08:55 1.1 96.0 1001.7 0.0 E 0.0 0.0 35.0
09:00 1.1 96.0 1001.7 0.0 E 0.0 0.0 37.0
09:05 1.1 96.0 1001.8 0.0 E 0.0 0.0 39.0
09:10 1.2 96.0 1001.7 0.0 E 0.0 0.0 49.0
09:15 1.2 97.0 1001.7 0.0 ESE 0.0 0.0 63.0
09:20 1.3 97.0 1001.8 0.0 ESE 0.0 0.0 72.0
09:25 1.3 97.0 1001.8 0.0 ESE 0.0 0.0 79.0
09:30 1.4 97.0 1001.7 0.0 ESE 0.0 0.0 125.0
09:35 1.6 97.0 1001.7 0.0 ESE 0.0 0.0 118.0
09:40 1.7 97.0 1001.8 0.0 ESE 0.0 0.0 114.0
09:45 1.7 97.0 1001.8 0.0 NNE 0.0 0.0 107.0
09:50 1.6 97.0 1001.9 0.0 N 1.6 0.0 116.0
09:55 1.6 97.0 1001.9 0.0 NNW 3.2 0.0 156.0
10:00 1.7 96.0 1001.9 1.6 NNE 4.8 0.0 174.0
10:05 1.8 97.0 1001.8 0.0 NNE 4.8 0.0 178.0
10:10 1.9 97.0 1001.8 0.0 NNE 3.2 0.0 181.0
10:15 2.1 97.0 1001.7 0.0 NNE 3.2 0.0 315.0
10:20 2.4 97.0 1001.6 0.0 NNE 1.6 0.0 352.0
10:25 2.4 97.0 1001.5 0.0 NNE 1.6 0.0 373.0
10:30 2.6 97.0 1001.5 0.0 N 3.2 0.0 380.0
10:35 2.6 97.0 1001.4 0.0 NW 3.2 0.0 392.0
10:40 2.8 97.0 1001.3 0.0 NW 4.8 0.0 392.0
10:45 3.2 97.0 1001.2 0.0 W 4.8 0.0 357.0
10:50 3.6 97.0 1001.1 0.0 N 3.2 0.0 353.0
10:55 3.7 97.0 1001.1 0.0 NNW 1.6 0.0 334.0
11:00 3.7 96.0 1001.0 0.0 NNW 3.2 0.0 362.0
11:05 3.8 96.0 1000.9 0.0 NNW 3.2 0.0 380.0
11:10 4.0 96.0 1000.8 0.0 N 3.2 0.0 362.0
11:15 4.1 95.0 1000.7 0.0 NNE 4.8 0.0 330.0
11:20 4.1 94.0 1000.7 0.0 NNE 4.8 0.0 350.0
11:25 4.3 94.0 1000.6 0.0 NNE 4.8 0.0 353.0
11:30 4.4 94.0 1000.6 0.0 WNW 4.8 0.0 295.0
11:35 4.6 94.0 1000.6 3.2 W 4.8 0.0 260.0
11:40 4.8 93.0 1000.6 0.0 W 3.2 0.0 267.0
11:45 4.9 93.0 1000.6 0.0 W 3.2 0.0 304.0
11:50 5.0 92.0 1000.6 0.0 W 3.2 0.0 262.0
11:55 5.0 91.0 1000.4 0.0 W 3.2 0.0 264.0
12:00 5.0 91.0 1000.3 0.0 NNW 3.2 0.0 301.0
12:05 5.1 92.0 1000.3 0.0 NW 3.2 0.0 283.0
12:10 5.3 91.0 1000.3 0.0 NNW 3.2 0.0 325.0
12:15 5.5 90.0 1000.2 0.0 SSW 8.0 0.0 299.0
12:20 5.8 90.0 1000.2 0.0 S 8.0 0.0 397.0
12:25 6.3 88.0 1000.2 0.0 S 4.8 0.0 381.0
12:30 6.4 85.0 1000.1 0.0 NW 8.0 0.0 489.0
12:35 6.7 84.0 1000.0 0.0 W 8.0 0.0 420.0
12:40 7.0 84.0 999.9 0.0 NNW 6.4 0.0 320.0
12:45 6.9 83.0 999.9 0.0 NNW 6.4 0.0 118.0
12:50 6.7 81.0 999.8 0.0 SW 3.2 0.0 341.0
12:55 6.8 82.0 999.8 6.4 SSW 8.0 0.0 153.0
13:00 6.8 81.0 999.8 6.4 SSW 8.0 0.0 383.0
13:05 7.1 79.0 999.8 3.2 NW 12.9 0.0 445.0
13:10 7.4 80.0 999.8 0.0 NW 17.7 0.0 418.0
13:15 7.7 77.0 999.7 6.4 SE 17.7 0.0 404.0
13:20 7.9 75.0 999.8 4.8 NNW 8.0 0.0 392.0
13:25 7.8 74.0 999.7 0.0 SE 8.0 0.0 79.0
13:30 7.8 74.0 999.8 4.8 NW 12.9 0.0 378.0
13:35 7.8 72.0 999.7 0.0 NW 14.5 0.0 362.0
13:40 7.8 72.0 999.6 3.2 WNW 14.5 0.0 346.0
13:45 8.1 73.0 999.6 1.6 NW 11.3 0.0 336.0
13:50 8.1 71.0 999.6 6.4 S 8.0 0.0 325.0
13:55 8.1 71.0 999.5 4.8 SW 14.5 0.0 316.0
14:00 8.1 72.0 999.6 3.2 S 14.5 0.0 306.0
14:05 8.3 72.0 999.7 1.6 SSE 11.3 0.0 297.0
14:10 8.3 69.0 999.7 4.8 WSW 9.7 0.0 288.0
14:15 8.2 69.0 999.7 3.2 NNW 8.0 0.0 279.0
14:20 8.1 70.0 999.7 4.8 SSW 11.3 0.0 267.0
14:25 8.0 70.0 999.7 0.0 SW 11.3 0.0 260.0
14:30 7.9 70.0 999.6 1.6 NW 9.7 0.0 250.0
14:35 7.8 70.0 999.7 4.8 SSE 9.7 0.0 239.0
14:40 7.8 70.0 999.7 0.0 W 9.7 0.0 234.0
14:45 7.8 71.0 999.8 0.0 SW 9.7 0.0 206.0
14:50 7.8 71.0 999.8 0.0 WSW 9.7 0.0 127.0
14:55 7.7 71.0 999.9 1.6 NNW 8.0 0.0 93.0
15:00 7.6 72.0 1000.0 0.0 SE 6.4 0.0 120.0
15:05 7.6 71.0 1000.0 0.0 S 6.4 0.0 86.0
15:10 7.6 72.0 1000.1 0.0 WNW 6.4 0.0 120.0
15:15 7.4 73.0 1000.0 4.8 ESE 12.9 0.0 134.0
15:20 7.3 72.0 1000.0 8.0 SE 14.5 0.0 130.0
15:25 7.1 73.0 1000.1 3.2 SSW 12.9 0.0 120.0
15:30 6.9 74.0 1000.0 8.0 S 12.9 0.0 72.0
15:35 6.8 73.0 1000.0 0.0 WSW 9.7 0.0 39.0
15:40 6.7 73.0 1000.0 3.2 E 9.7 0.0 40.0
15:45 6.6 74.0 1000.2 1.6 S 9.7 0.0 35.0
15:50 6.4 74.0 1000.3 0.0 NE 6.4 0.0 35.0
15:55 6.4 75.0 1000.3 0.0 S 6.4 0.0 28.0
16:00 6.3 76.0 1000.3 0.0 S 6.4 0.0 25.0
16:05 6.2 75.0 1000.3 0.0 WNW 4.8 0.0 23.0
16:10 6.1 75.0 1000.3 0.0 W 6.4 0.0 19.0
16:15 6.0 75.0 1000.4 0.0 WSW 6.4 0.0 12.0
16:20 5.9 75.0 1000.5 0.0 NNW 6.4 0.0 7.0
16:25 5.8 76.0 1000.6 0.0 NW 6.4 0.0 5.0
16:30 5.7 77.0 1000.6 0.0 WNW 4.8 0.0 0.0
16:35 5.7 77.0 1000.7 0.0 NNE 4.8 0.0 0.0
16:40 5.6 78.0 1000.6 4.8 N 12.9 0.0 0.0
16:45 5.5 78.0 1000.7 0.0 NNW 12.9 0.0 0.0
16:50 5.4 78.0 1000.8 0.0 ESE 9.7 0.0 0.0
16:55 5.3 79.0 1000.9 3.2 NNE 9.7 0.0 0.0
17:00 5.3 79.0 1001.0 0.0 NW 4.8 0.0 0.0
17:05 5.2 80.0 1001.1 0.0 NW 4.8 0.0 0.0
17:10 4.8 80.0 1001.3 0.0 NW 1.6 0.0 0.0
17:15 4.4 82.0 1001.4 0.0 NW 0.0 0.0 0.0
17:20 4.1 84.0 1001.5 4.8 N 8.0 0.0 0.0
17:25 4.2 86.0 1001.6 4.8 NNE 11.3 0.0 0.0
17:30 4.3 85.0 1001.7 0.0 NE 12.9 0.0 0.0
17:35 4.6 85.0 1001.7 0.0 WNW 12.9 0.0 0.0
17:40 4.7 84.0 1001.9 0.0 SE 6.4 0.0 0.0
17:45 4.8 83.0 1001.9 0.0 WNW 6.4 0.0 0.0
17:50 4.8 83.0 1001.9 0.0 SW 9.7 0.0 0.0
17:55 4.9 83.0 1001.9 1.6 WNW 9.7 0.0 0.0
18:00 4.9 83.0 1001.9 0.0 W 3.2 0.0 0.0
18:05 4.9 83.0 1002.1 0.0 NE 4.8 0.0 0.0
18:10 4.9 83.0 1002.1 0.0 NW 4.8 0.0 0.0
18:15 4.9 83.0 1002.2 0.0 NW 1.6 0.0 0.0
18:20 4.9 84.0 1002.1 0.0 NW 0.0 0.0 0.0
18:25 4.8 85.0 1002.2 0.0 WNW 1.6 0.0 0.0
18:30 4.7 85.0 1002.4 0.0 WNW 1.6 0.0 0.0
18:35 4.6 85.0 1002.5 0.0 WNW 1.6 0.0 0.0
18:40 4.6 85.0 1002.6 0.0 SSW 6.4 0.0 0.0
18:45 4.6 86.0 1002.7 0.0 SSW 6.4 0.0 0.0
18:50 4.6 86.0 1002.7 0.0 SSW 3.2 0.0 0.0
18:55 4.6 87.0 1002.7 0.0 SSW 1.6 0.0 0.0
19:00 4.6 87.0 1002.8 0.0 SSW 1.6 0.0 0.0
19:05 4.6 87.0 1002.8 0.0 SSW 1.6 0.0 0.0
19:10 4.6 87.0 1002.9 0.0 S 3.2 0.0 0.0
19:15 4.6 87.0 1003.0 1.6 SSW 6.4 0.0 0.0
19:20 4.7 86.0 1002.9 0.0 NE 6.4 0.0 0.0
19:25 4.7 85.0 1002.9 0.0 NW 3.2 0.0 0.0
19:30 4.7 85.0 1003.0 0.0 NW 3.2 0.0 0.0
19:35 4.8 85.0 1003.0 0.0 NW 0.0 0.0 0.0
19:40 4.8 85.0 1003.0 0.0 NW 0.0 0.0 0.0
19:45 4.8 87.0 1003.0 0.0 NW 0.0 0.0 0.0
19:50 4.8 88.0 1003.0 0.0 NW 0.0 0.0 0.0
19:55 4.7 88.0 1003.1 0.0 NW 0.0 0.0 0.0
20:00 4.7 88.0 1003.2 0.0 S 1.6 0.0 0.0
20:05 4.6 89.0 1003.2 0.0 S 1.6 0.0 0.0
20:10 4.6 88.0 1003.4 0.0 S 0.0 0.0 0.0
20:15 4.5 87.0 1003.5 0.0 S 0.0 0.0 0.0
20:20 4.5 87.0 1003.6 0.0 S 0.0 0.0 0.0
20:25 4.6 89.0 1003.6 0.0 S 0.0 0.0 0.0
20:30 4.6 89.0 1003.7 0.0 S 0.0 0.0 0.0
Màxima 8.3 97.0 1003.7 8.0 S 17.7 0.2 489.0
Mínima -0.9 69.0 999.1
Total 0.2